Location: Kopernik Observatory
(42.0014°N, 76.0372°W)
Time: 11:52:58
(UTC-05:00)

Daily predictions for brighter satellites

Satellite Brightness Start Highest point End
(mag) Time Altitude Azimuth Time Altitude Azimuth Time Altitude Azimuth
Cosmos 1709 Rocket 4.0 18:12:42 10° S 18:18:46 60° E 18:24:49 10° NNE
Okean 1 Rocket 3.7 18:19:56 10° SSE 18:24:01 35° E 18:28:05 10° NNE
Cosmos 1602 3.9 18:23:19 10° S 18:27:05 52° E 18:30:55 10° NNE
Cosmos 2151 Rocket 3.9 18:24:08 10° SSW 18:28:38 75° W 18:33:11 10° N
Meteor 1-11 Rocket 4.0 18:23:05 10° SSE 18:28:40 52° E 18:34:25 10° NNE
Cosmos 1833 4.2 18:25:18 10° SSW 18:31:01 86° ESE 18:36:42 10° NNE
Cosmos 1340 2.6 18:28:11 10° N 18:32:00 82° E 18:35:46 10° SSE
Cosmos 1025 Rocket 4.0 18:30:47 10° NNE 18:34:32 27° ENE 18:38:16 10° SE
ALOS 2.7 18:31:02 10° SE 18:35:22 39° ENE 18:39:43 10° N
Cosmos 1023 Rocket 4.4 18:30:31 10° SSW 18:35:35 75° ESE 18:40:45 10° NNE
SL-16 R/B 4.0 18:30:28 10° NW 18:35:36 36° WSW 18:40:43 10° S
Cosmos 2333 Rocket 3.4 18:33:26 10° N 18:37:57 23° NE 18:41:50 12° E
NOAA 12 4.3 18:43:25 10° S 18:48:44 81° WSW 18:54:06 10° NNW
FENGYUN 3A 3.7 18:44:30 10° SSE 18:49:47 56° ENE 18:55:05 10° N
Abrixas rocket 2.6 18:47:44 10° SW 18:50:59 49° SE 18:52:57 21° ENE
Cosmos 1741 Rocket 4.0 18:48:04 10° S 18:53:13 65° ESE 18:58:24 10° NNE
FREGAT/IRIS 2.7 18:50:09 10° S 18:53:14 83° W 18:56:20 10° NNW
Cosmos 2285 Rocket 4.3 18:48:18 10° N 18:54:29 45° ENE 19:00:35 10° SE
Genesis I 3.1 18:51:37 10° NNW 18:55:35 89° ENE 18:59:30 10° SSE
GEOS 3 Rocket 4.1 18:51:53 10° NE 18:56:48 39° ESE 19:01:43 10° S
Okean 1-7 Rocket 3.6 18:52:33 10° N 18:57:03 62° E 19:01:29 10° SSE
GPS 2-04 Rocket1 4.0 18:55:56 10° SW 18:59:42 30° S 19:01:59 19° ESE
Meteor 1-5 Rocket 4.4 18:57:58 10° S 19:03:43 53° E 19:09:26 10° NNE
FengYun 1-2 T 4.1 18:58:22 10° SSE 19:03:48 73° ENE 19:09:19 10° N
Cosmos 1633 3.9 19:01:07 10° SSW 19:04:39 44° W 19:08:12 10° N
Cosmos 1140 Rocket 4.1 19:02:03 10° SSW 19:07:06 58° WNW 19:12:12 10° NNE
Cosmos 614 Rocket 4.2 19:05:13 10° SSW 19:10:16 71° WNW 19:15:21 10° NNE
Cosmos 2322 4.5 19:04:58 10° NNW 19:10:33 55° WSW 19:16:05 10° S
Cosmos 1570 Rocket 4.0 19:05:24 10° NNW 19:10:39 85° WSW 19:15:53 10° SSE
SJ-6B 3.7 19:10:11 10° S 19:14:04 51° W 19:17:54 10° NNW
ATLAS CENTAUR R/B 2.8 19:11:28 10° SSW 19:14:33 22° SSE 19:14:33 22° SSE
Cosmos 405 Rocket 3.0 19:18:54 10° N 19:22:50 45° ENE 19:23:33 41° ESE
Cosmos 468 Rocket 4.2 19:18:01 10° N 19:23:06 48° ENE 19:25:21 30° ESE
USA 229 DEB 3.7 19:16:55 10° NNW 19:24:05 79° NE 19:29:53 17° SE
USA 229 3.7 19:17:01 10° NNW 19:24:11 78° NE 19:29:56 18° SE
Helios 1A 3.1 19:23:44 34° SE 19:25:07 50° ENE 19:29:09 10° N
CZ-2D R/B 3.1 19:24:00 25° SSE 19:26:05 66° ENE 19:29:53 10° N
Okean 2 3.3 19:22:13 10° N 19:26:22 66° E 19:29:22 18° SSE
Cosmos 2237 Rocket 2.7 19:21:34 10° N 19:26:53 38° ENE 19:28:14 33° E
H-2A R/B 2.6 19:23:39 10° SSE 19:27:22 87° WSW 19:31:09 10° NNW
Spot 2 Rocket 3.5 19:22:22 10° SSE 19:27:25 87° WSW 19:32:33 10° NNW
Cosmos 2333 4.2 19:21:46 10° NNW 19:27:32 86° WSW 19:33:18 10° SSE
Gbstr 26 Del rocket 3.5 19:24:13 10° W 19:27:50 43° NNW 19:29:28 26° NNE
COSMOS 2428 2.9 19:22:36 10° NNW 19:28:17 75° WSW 19:33:57 10° SSE
Helios 1B rocket 2.6 19:25:22 10° NNE 19:29:23 48° E 19:33:24 10° S
Cosmos 2297 Rocket 3.9 19:25:03 10° SSE 19:26:19 15° SSE 19:26:19 15° SSE
Meteor 2-4 Rocket 4.2 19:27:07 10° NNW 19:32:33 58° W 19:37:48 10° S
Resurs 01 Rocket 2.0 19:31:53 10° S 19:36:14 63° WSW 19:40:37 10° NNW
NOSS 3-1 (A) 4.5 19:29:31 10° NNW 19:36:32 41° NE 19:39:19 32° E
Atlas Centaur 2 4.4 19:35:25 10° S 19:38:03 12° SSE 19:38:25 12° SSE
Cosmos 2360 Rocket 4.3 19:35:14 10° NW 19:39:53 27° WSW 19:44:33 10° SSW
Cosmos 1610 Rocket 4.3 19:33:59 10° S 19:40:11 77° E 19:46:22 10° N
Cosmos 2219 Rocket 2.0 19:35:09 10° NNW 19:40:47 79° ENE 19:43:37 30° SSE
ATLAS 2AS CENTAUR R/B 4.4 19:35:16 10° NNW 19:41:12 21° NNE 19:43:50 18° NE
Cosmos 1814 Rocket 4.0 19:37:56 10° N 19:43:00 53° ENE 19:43:32 50° E
ERS-1 Rocket 4.4 19:45:15 23° NNE 19:45:15 23° NNE 19:47:45 10° N
Envisat 3.3 19:44:07 44° ENE 19:44:07 44° ENE 19:48:44 10° N
Cosmos 2219 3.9 19:40:45 10° SW 19:46:22 56° WNW 19:52:02 10° NNE
Resurs 1-3 4.3 19:44:52 10° S 19:49:09 54° W 19:53:28 10° NNW
Cosmos 2227 Rocket 2.3 19:44:15 10° S 19:49:27 50° ESE 19:49:27 50° ESE
NOSS 3-1 (C) 4.1 19:47:47 10° NNW 19:55:14 62° NE 19:57:53 43° ESE
SL-16 R/B 3.3 19:56:48 10° N 20:00:38 29° NNE 20:00:38 29° NNE
Cosmos 1892 Rocket 4.0 20:01:22 10° NNW 20:05:40 59° W 20:06:48 43° SSW
Cosmos 2333 Rocket 2.6 20:16:59 10° NNW 20:22:39 60° WSW 20:23:54 49° SSW
Cosmos 1980 3.8 20:20:18 10° NNW 20:25:56 70° WSW 20:26:08 70° SW
Cosmos 841 Rocket 4.3 20:21:12 10° NNW 20:24:32 40° N 20:24:32 40° N
Nadezhda 3 Rocket 4.3 20:22:22 10° NNW 20:28:27 62° W 20:31:35 29° SSW
Cosmos 2341 Rocket 4.2 20:30:29 10° SSW 20:36:49 71° W 20:43:14 10° N
Cosmos 1763 Rocket 4.3 20:32:45 10° NNW 20:36:23 46° NW 20:36:23 46° NW
Cosmos 2237 Rocket 3.7 21:05:49 10° NW 21:10:06 31° W 21:10:06 31° W
Cosmos 2227 Rocket 4.4 21:29:20 10° WSW 21:31:30 19° W 21:31:30 19° W
ATLAS 2AS CENTAUR R/B 4.0 21:26:07 10° NNW 21:31:17 40° N 21:31:17 40° N
